Regional Weather Roundup
Issued by NWS

Home | Current Version | Previous Version | Text Only | Print | Product List | Glossary On
Versions: 1 2 3 4 5 6 7 8 9 10 11 12 13 14 15 16 17 18 19 20 21 22 23 24 25 26 27
000
ASUS46 KSEW 242010
RWRWA

WASHINGTON REGIONAL WEATHER ROUNDUP
NATIONAL WEATHER SERVICE SEATTLE WA
100 PM PDT FRI MAR 24 2017

NOTE:"FAIR" INDICATES FEW OR NO CLOUDS BELOW 12,000 FEET WITH NO
SIGNIFICANT WEATHER AND/OR OBSTRUCTIONS TO VISIBILITY.

WAZ507-509-555>559-242100-
SEATTLE, TACOMA, EVERETT, AND VICINITY

CITY           SKY/WX    TMP DP  RH WIND       PRES   REMARKS
EVERETT        CLOUDY    50  43  77 SE15      29.81S
BOEING FIELD   PTSUNNY   56  46  69 S15G23    29.82S
RENTON         PTSUNNY   56  43  61 S12G21    29.81S
SEATAC AIRPORT PTSUNNY   53  42  66 SW16      29.82R
JBLM-MCCHORD   PTSUNNY   54  45  71 S17G29    29.83R
PUYALLUP         N/A     55  41  58 S12G22    29.83R
BREMERTON      PTSUNNY   46  45  93 S13G18    29.84R
JBLM-FT LEWIS  PTSUNNY   53  47  81 S16G24    29.82R
TACOMA NARROWS PTSUNNY   52  44  74 S15G23    29.82R
$$

WAZ001-503-506-510-514-515-242100-
NORTH INTERIOR

CITY           SKY/WX    TMP DP  RH WIND       PRES   REMARKS
BELLINGHAM     CLOUDY    53  44  71 S14G21    29.77R
FRIDAY HARBOR  PTSUNNY   52  46  80 SE7       29.78R
EASTSOUND      PTSUNNY   50  45  81 S12G18    29.75S
PORT ANGELES   PTSUNNY   50  41  71 NE3       29.76S
EDIZ HOOK      CLOUDY    49  42  78 CALM      29.76S
PORT TOWNSEND  PTSUNNY   55  45  67 SE14G28   29.76S
NAS WHIDBEY    PTSUNNY   55  42  61 S20G26    29.81R
ARLINGTON      MOSUNNY   54  41  62 S22       29.82F
BURLINGTON     CLOUDY    52  45  76 SE12G18   29.79R
$$

WAZ020-022-039-040-504-511-512-242100-
SOUTHWEST INTERIOR

CITY           SKY/WX    TMP DP  RH WIND       PRES   REMARKS
SHELTON        LGT RAIN  50  45  83 SW10G22   29.81R
OLYMPIA        LGT RAIN  52  46  80 S13G22    29.83R
CHEHALIS       PTSUNNY   52  46  82 S16G23    29.85R
KELSO          LGT RAIN  49  45  86 SE13      29.90R
VANCOUVER      CLOUDY    50  44  80 S7        29.92R
SCAPPOOSE, OR  LGT RAIN  50  45  83 SE12      29.90R
PORTLAND, OR   CLOUDY    51  43  74 S12       29.92S
$$

WAZ021-516-517-242100-
WASHINGTON COAST

CITY           SKY/WX    TMP DP  RH WIND       PRES   REMARKS
FORKS          LGT RAIN  48  47  96 S10G16    29.75R
HOQUIAM        CLOUDY    51  48  89 S15       29.82R
ASTORIA, OR    CLOUDY    52  43  71 S21G28    29.85R
$$

WAZ019-023-024-040-567>569-242100-
CASCADE MOUNTAINS AND COLUMBIA GORGE

CITY           SKY/WX    TMP DP  RH WIND       PRES   REMARKS
STAMPEDE PASS  NOT AVBL
TROUTDALE, OR  CLOUDY    51  44  77 E5        29.93R
THE DALLES, OR CLOUDY    50  44  80 NW12      29.89S
$$

WAZ026-027-041>044-520-521-242100-
EAST SLOPES

CITY           SKY/WX    TMP DP  RH WIND       PRES   REMARKS
OMAK           LGT RAIN  37  33  85 CALM      29.84F
WENATCHEE      CLOUDY    40  37  89 CALM      29.83F
ELLENSBURG     CLOUDY    46  39  76 MISG      29.81S
YAKIMA         CLOUDY    50  44  80 E3        29.83S
SUNNYSIDE ARPT LGT RAIN  46  44  93 W9        29.84S
$$

WAZ028-034-035-242100-
COLUMBIA BASIN

CITY           SKY/WX    TMP DP  RH WIND       PRES   REMARKS
EPHRATA        LGT RAIN  43  37  79 SW3       29.82S
MOSES LAKE     LGT RAIN  43  40  89 W7        29.83S FOG
PASCO          CLOUDY    51  47  86 SE8       29.85F
HERMISTON, OR  LGT RAIN  53  46  77 E5        29.84R
$$

WAZ036>038-242100-
NORTHEAST WASHINGTON

CITY           SKY/WX    TMP DP  RH WIND       PRES   REMARKS
SPOKANE GEIGER LGT RAIN  44  39  82 S10       29.83F
SPOKANE FELTS  LGT RAIN  44  42  93 SE5       29.85F FOG
FAIRCHILD AFB  LGT RAIN  43  43 100 S14       29.82S
COEURDALENE,ID LGT RAIN  42  39  89 CALM      29.86F
DEER PARK      LGT RAIN  41  39  93 SE3       29.84F FOG
$$

WAZ029>033-242100-
SOUTHEAST WASHINGTON

CITY           SKY/WX    TMP DP  RH WIND       PRES   REMARKS
PULLMAN        LGT RAIN  47  40  76 SW10      29.87S
LEWISTON, ID   CLOUDY    52  38  58 NW3       29.86F
WALLA WALLA    LGT RAIN  52  43  71 S15G24    29.85R
PENDLETON, OR  LGT RAIN  50  43  77 S8        29.83S
$$




USA.gov is the U.S. government's official web portal to all federal, state and local government web resources and services.